Theta_e
321 313 312 309 298 293 288 290 294 297 296 300 303 303 302 304 303 297 324 333 338 338 343 346 348 351 349 348 346 345 342 342 341 341 342 343 343 342 344 343 343 340 338 337 338 338 338 338 341
318 315 310 302 293 286 288 291 294 297 299 302 303 301 302 306 314 322 327 336 337 337 344 346 346 350 350 348 346 345 342 341 341 341 340 341 342 341 344 343 342 339 338 336 337 337 337 337 339
316 312 303 296 289 287 289 291 296 297 298 298 299 302 305 308 316 325 331 336 338 338 344 346 346 349 350 348 346 344 343 341 340 339 340 340 341 340 344 343 341 339 336 336 336 336 336 337 337
308 304 299 292 290 291 292 295 298 297 297 300 300 301 309 315 324 329 335 337 337 340 344 344 347 349 349 348 346 344 341 340 339 339 339 339 340 343 343 342 340 339 336 334 334 335 334 337 337
304 300 294 291 290 294 293 298 298 296 296 296 298 299 304 320 325 334 335 337 336 340 343 344 346 347 348 347 346 345 342 340 338 338 338 339 340 343 342 340 339 336 334 332 333 333 333 335 336
299 297 291 288 289 293 293 298 299 296 295 296 298 303 305 318 328 331 336 335 338 338 342 344 340 342 345 345 345 344 342 341 338 337 338 338 341 342 341 339 337 334 333 330 331 331 332 333 332
298 293 290 289 290 292 295 297 297 296 296 297 300 300 306 315 325 330 333 336 338 339 341 343 343 341 338 341 341 341 341 339 338 338 338 338 340 339 338 336 335 332 332 329 330 330 331 331 330
299 296 291 291 290 291 295 296 298 297 297 300 300 300 303 312 321 329 331 336 337 338 340 341 341 341 341 340 335 336 337 337 336 335 334 332 333 333 332 331 333 332 330 328 329 330 331 331 329
298 292 288 290 291 293 296 295 296 298 298 297 300 302 306 316 323 326 325 332 336 336 338 339 340 341 339 338 334 332 332 332 331 329 327 326 327 326 325 327 331 331 329 328 328 329 328 327 325
294 289 291 292 292 293 295 295 297 294 295 295 298 305 311 317 320 323 321 326 329 332 334 338 339 339 337 338 334 333 332 331 326 323 323 322 322 323 324 322 326 328 327 327 326 324 322 316 313
295 292 294 293 294 295 296 294 296 295 292 296 299 305 311 315 316 321 321 321 329 331 334 336 337 338 338 337 336 334 332 330 324 321 319 320 320 319 318 317 317 317 318 317 316 311 310 310 311
290 294 294 296 296 295 293 296 293 295 297 299 299 307 311 313 314 317 320 318 323 328 333 335 337 337 337 337 335 336 334 332 325 320 319 319 320 319 314 314 313 312 312 311 309 308 308 308 309
291 293 295 296 295 294 296 293 294 295 298 297 298 304 309 313 314 314 319 320 320 326 330 333 335 335 336 336 336 335 334 333 328 320 321 319 317 316 315 312 312 310 309 309 307 306 305 306 307
296 295 294 295 295 295 293 291 293 294 294 296 297 299 304 310 313 312 313 318 319 325 329 331 332 334 334 335 335 335 334 334 329 322 322 319 317 315 315 312 313 311 308 308 306 304 303 303 304
296 290 292 293 295 294 295 290 293 294 295 295 295 296 299 304 308 312 316 316 321 322 327 329 331 332 333 334 333 335 334 333 331 326 323 321 319 316 315 314 313 312 311 308 305 302 300 299 300
290 289 285 290 294 294 293 287 292 294 293 295 295 294 295 298 303 308 313 315 316 320 321 328 331 331 332 333 333 335 335 334 332 328 324 323 321 317 317 314 313 314 311 307 304 303 300 298 298
287 282 285 289 295 294 291 287 293 295 294 294 294 295 295 296 297 300 303 310 314 316 320 323 329 329 330 333 334 334 335 334 333 330 325 325 322 319 317 315 315 313 310 305 304 300 300 296 293
283 284 286 285 292 291 288 289 293 294 292 293 293 293 293 296 298 300 301 301 309 312 317 322 326 328 329 333 333 333 334 334 334 331 329 325 324 320 317 316 315 312 309 305 302 299 296 293 293
288 286 285 287 291 290 289 289 291 293 292 292 292 293 293 294 298 298 299 299 299 304 311 319 322 327 328 326 328 327 329 331 332 332 330 327 325 321 318 317 315 312 309 306 301 297 293 291 290
286 285 285 287 290 289 288 288 291 292 294 295 294 294 293 292 294 297 298 297 298 301 309 316 321 326 328 329 330 329 329 320 330 332 331 329 326 323 320 318 315 313 309 304 299 296 292 291 291
286 285 284 286 287 287 286 284 286 290 291 294 295 295 294 294 294 295 296 296 296 297 304 313 320 323 327 328 321 316 316 315 317 323 328 328 327 324 322 319 316 312 310 304 300 296 295 289 291
284 289 288 286 284 280 285 277 283 288 290 291 293 291 292 294 295 295 296 296 296 297 299 309 316 320 323 321 322 321 323 322 322 320 321 319 325 325 323 320 317 313 311 306 302 298 298 294 289
287 290 287 286 283 281 281 280 283 284 286 290 291 292 292 293 295 296 295 297 300 298 298 308 314 317 317 321 322 322 320 317 309 309 312 313 313 316 322 320 317 314 312 309 304 300 298 296 293
292 288 287 284 282 277 281 281 279 284 287 288 291 293 294 297 297 296 296 297 299 298 298 302 309 311 312 316 314 316 317 308 306 305 306 307 311 311 310 313 317 316 313 310 305 302 299 297 297
288 284 277 276 275 276 280 279 282 287 290 290 293 294 294 293 295 295 296 295 296 297 299 299 300 303 307 310 309 311 310 307 307 305 305 301 306 305 308 308 310 314 313 311 307 303 300 299 298
285 284 278 272 274 276 281 279 284 290 291 293 294 293 295 295 296 296 296 296 295 296 297 299 299 299 301 304 306 306 306 306 305 305 303 304 304 305 303 306 309 311 311 310 307 304 301 301 299
286 283 286 280 270 274 279 282 288 291 291 293 294 295 294 295 295 295 297 296 296 297 297 298 299 300 299 301 302 303 304 304 303 303 302 302 301 300 298 303 305 307 307 307 305 304 301 301 299
288 290 282 280 271 270 277 278 282 286 290 293 292 293 294 295 295 296 295 295 296 296 297 298 298 299 299 300 301 302 302 303 302 302 301 300 300 299 297 299 303 303 304 304 303 302 300 298 298
286 285 285 285 280 275 272 278 286 289 292 292 292 293 293 294 294 294 295 295 295 296 297 297 298 298 298 299 299 300 300 301 300 300 300 299 297 296 295 295 299 300 300 301 301 301 299 297 297
287 287 286 281 278 280 280 282 292 292 292 293 293 294 294 295 295 294 294 294 295 295 295 296 297 297 298 299 299 299 299 299 298 298 298 297 296 294 294 292 294 296 297 298 298 298 298 296 295
Wind_Speed
6 5 3 6 5 6 1 1 3 2 3 1 3 8 7 3 2 4 2 7 14 13 10 10 13 13 13 13 12 12 12 13 13 13 13 12 13 14 15 17 17 18 18 17 17 18 18 19 18
3 2 5 3 6 4 5 1 5 2 5 5 6 5 4 2 2 6 9 11 17 13 10 10 12 13 14 13 14 12 12 13 13 13 13 12 12 13 14 17 18 17 16 16 16 17 17 17 19
3 3 5 5 4 5 4 3 6 2 3 3 3 4 5 5 1 8 4 14 15 13 10 10 13 14 14 13 14 12 12 12 13 12 12 13 12 12 11 16 18 17 16 15 15 16 17 15 19
3 5 5 6 2 1 7 6 5 4 1 5 4 6 2 2 8 7 14 15 14 13 11 12 14 15 15 13 15 14 13 12 12 12 12 12 12 10 16 17 18 16 15 14 14 16 16 18 19
4 3 5 3 3 0 1 5 7 4 3 2 3 4 2 5 1 15 16 14 15 11 10 12 14 15 15 15 15 14 14 13 13 13 12 12 11 14 17 17 17 16 14 13 14 15 17 16 18
5 4 5 2 2 1 2 7 7 3 3 3 5 5 3 4 8 10 14 12 14 13 11 10 12 13 14 15 15 14 14 13 14 14 14 13 12 15 16 16 16 15 14 13 15 16 17 18 18
6 5 5 4 3 2 3 5 7 6 5 4 8 5 2 3 5 8 10 11 11 12 11 10 10 11 12 13 13 14 14 14 13 13 13 12 11 12 13 13 15 14 14 14 15 15 17 18 18
5 5 3 1 2 3 3 2 6 6 7 1 5 6 5 7 8 7 7 10 10 11 11 11 9 9 9 9 12 12 12 12 12 11 10 10 10 11 11 11 12 14 13 14 15 15 16 17 17
3 6 2 2 4 4 4 3 2 1 5 1 1 6 5 11 8 7 5 6 9 9 11 11 11 10 8 7 8 11 12 11 11 9 10 9 5 7 8 8 11 13 13 14 14 15 15 16 15
5 4 7 2 3 3 2 2 5 4 2 1 2 2 4 10 7 9 9 11 9 12 12 12 13 12 9 7 7 6 6 6 5 5 6 4 5 4 6 8 10 11 11 13 15 13 13 9 4
2 5 5 1 1 2 2 2 1 6 3 7 9 7 6 6 8 11 8 10 15 12 10 13 13 13 12 9 7 4 4 4 4 6 6 5 4 4 3 3 3 4 5 3 6 5 4 6 5
4 1 4 4 1 2 2 2 1 6 8 5 8 11 8 10 11 13 13 10 10 11 13 13 14 14 13 9 9 8 6 6 5 6 7 6 4 6 4 4 4 4 3 5 4 3 5 6 6
3 1 4 4 3 3 1 2 4 8 9 5 2 9 12 11 11 8 10 7 6 11 12 13 12 13 13 12 10 10 9 7 7 7 7 5 5 5 5 5 4 4 4 4 4 4 4 5 5
4 2 1 4 4 3 1 1 2 6 3 7 7 10 11 13 16 7 7 11 10 12 13 13 12 13 13 11 13 11 9 10 8 8 8 8 7 6 7 7 6 6 5 4 4 5 5 4 5
4 1 4 4 4 2 3 4 9 5 5 5 4 9 9 13 8 15 17 16 15 12 12 14 14 12 14 13 11 11 12 10 10 9 11 11 9 8 9 6 7 7 5 6 5 4 5 5 4
4 5 1 3 6 2 5 8 6 4 5 7 9 8 8 11 15 16 12 13 12 10 12 13 13 13 14 13 11 9 11 10 9 9 9 12 11 11 9 8 6 5 7 6 6 7 5 5 4
5 3 4 5 7 3 3 6 6 3 3 6 8 9 9 10 12 14 12 13 12 15 14 13 14 15 15 12 11 10 12 11 9 9 9 13 12 12 10 8 7 8 7 6 7 5 7 6 4
6 4 4 4 5 2 3 9 10 10 4 10 11 10 10 11 18 12 14 13 14 12 13 15 14 15 14 10 9 7 8 9 10 10 11 13 11 13 10 8 9 9 8 7 6 8 4 4 7
6 3 3 3 4 5 7 7 11 11 9 12 11 13 12 14 14 9 10 10 10 8 9 13 14 16 11 8 9 8 11 10 10 10 14 13 13 13 13 8 10 10 10 11 9 7 10 5 5
3 4 5 4 1 2 5 12 11 8 14 13 12 13 11 7 7 10 10 8 10 13 14 13 15 15 14 12 10 6 8 4 7 8 11 13 14 14 13 12 11 13 9 9 11 12 7 2 8
4 6 4 6 2 3 4 10 5 7 5 7 10 11 7 11 10 10 10 9 6 9 11 14 16 16 14 13 5 4 5 4 3 4 8 11 15 15 16 15 12 14 12 12 15 13 16 7 10
3 5 2 2 3 4 2 8 5 7 10 9 16 10 9 10 8 7 9 7 7 9 6 7 8 9 10 9 9 12 11 10 7 6 3 4 9 13 14 14 14 13 11 13 13 14 13 10 10
7 3 2 1 3 2 3 1 10 3 7 15 10 10 9 8 6 3 3 1 3 2 6 6 8 8 7 12 11 10 8 4 3 3 7 5 4 4 11 13 14 14 12 13 15 15 15 11 9
8 6 8 5 3 4 9 9 7 5 7 5 4 6 3 4 3 1 2 4 4 3 2 4 6 5 5 7 7 9 9 6 4 3 5 5 4 4 5 6 11 12 12 12 14 15 17 15 13
5 8 2 4 2 8 2 2 9 9 10 6 7 9 8 4 3 4 3 2 2 5 4 3 4 4 5 6 6 7 7 8 8 7 6 6 6 4 8 7 6 7 10 11 12 14 15 15 14
7 9 8 9 5 5 1 7 7 6 5 6 5 6 7 5 2 5 5 4 4 2 2 3 2 2 3 6 7 6 7 5 5 6 5 6 7 7 7 9 10 9 9 10 11 10 11 14 12
7 6 5 6 2 4 6 7 10 7 5 6 11 12 12 8 3 3 6 4 4 4 2 0 2 2 3 5 5 6 6 7 7 8 6 5 6 5 7 9 10 11 11 10 11 10 13 12 12
7 9 4 3 3 4 5 5 7 3 3 7 8 9 9 8 8 6 5 6 3 2 2 1 1 3 4 5 5 5 6 6 6 5 7 7 6 7 7 9 10 10 10 10 11 9 9 11 10
4 4 3 6 6 7 1 7 7 8 7 8 5 5 5 6 5 6 4 2 3 2 2 3 3 3 4 4 4 5 5 5 5 6 6 6 5 7 8 8 9 9 10 10 11 11 11 13 12
1 9 7 7 5 5 4 8 3 8 8 7 4 3 5 6 5 4 3 4 2 1 3 4 4 5 5 4 4 6 6 5 6 6 7 6 7 6 7 7 8 8 9 9 11 12 10 12 12
Wind_Direction
315 296 93 46 60 63 267 110 148 110 57 350 105 105 130 91 120 201 152 150 133 146 154 149 145 140 136 129 116 110 111 106 101 98 95 96 92 93 94 103 98 94 89 88 93 90 81 74 100
314 28 46 92 83 72 280 256 134 183 174 140 93 94 56 119 136 108 128 157 144 147 150 148 145 145 142 136 126 122 117 110 111 107 106 106 101 96 97 109 102 96 91 88 92 90 78 79 95
318 33 88 92 115 157 180 193 163 140 173 105 81 62 135 168 87 153 157 151 141 149 151 152 149 148 145 142 126 121 119 118 113 111 110 110 105 101 107 111 105 102 94 92 96 89 74 89 97
45 13 32 84 105 299 168 168 164 137 18 62 112 74 24 227 162 158 145 145 142 151 152 156 153 151 147 139 131 133 130 125 121 118 116 113 106 94 115 111 104 100 97 94 97 86 76 88 99
37 56 62 74 7 48 101 174 155 132 151 131 113 176 113 325 295 137 146 146 148 151 151 157 157 154 149 143 142 143 140 135 130 127 124 118 116 117 117 113 106 102 106 104 101 89 78 95 97
37 90 63 92 302 104 184 185 134 109 161 158 83 112 203 310 136 149 151 152 153 148 155 159 158 155 152 151 150 148 145 141 139 137 136 134 128 125 121 117 116 113 113 111 104 90 84 94 96
113 82 170 176 159 168 189 156 131 168 154 228 158 122 281 289 207 144 145 143 149 148 155 160 164 162 156 154 153 152 149 147 146 144 141 134 124 117 115 114 118 126 119 116 109 94 94 98 99
106 94 144 162 162 198 201 119 125 144 221 113 149 175 202 221 200 146 122 142 147 155 159 161 162 163 163 162 156 153 150 149 146 140 131 121 113 110 110 112 123 128 126 120 109 104 101 100 95
104 66 166 194 161 185 209 126 11 133 116 62 56 153 225 154 158 139 122 151 158 167 166 165 164 167 164 160 164 154 151 149 143 139 139 126 125 120 112 121 125 131 128 124 116 107 103 94 84
85 110 198 245 150 175 130 140 160 122 104 235 37 14 101 135 161 173 167 182 175 180 175 174 167 169 162 167 160 155 154 154 150 144 143 122 115 122 126 124 128 127 131 130 119 103 99 85 73
148 166 195 300 132 111 143 112 283 127 220 212 198 186 166 162 177 186 202 189 190 181 177 183 170 170 168 166 166 162 158 153 149 150 149 140 136 124 115 117 113 122 121 116 92 90 78 92 91
112 96 149 191 189 102 191 326 251 190 219 205 230 178 163 174 190 195 206 199 182 184 185 184 177 173 175 166 174 172 171 168 163 171 160 155 155 151 144 140 140 135 138 121 109 103 103 94 93
118 186 123 163 169 148 167 250 244 257 246 228 290 168 188 192 205 223 213 216 187 191 191 193 177 174 177 171 175 183 181 177 176 172 174 163 161 160 158 148 152 151 144 140 130 127 116 105 100
160 153 151 198 198 170 163 305 5 277 267 250 195 202 214 201 206 211 205 218 204 200 198 192 190 178 174 177 177 182 183 187 173 180 184 169 164 165 166 162 171 165 156 149 138 144 126 110 107
115 164 330 223 196 190 130 293 234 261 313 314 231 224 215 222 220 216 211 210 209 207 199 195 193 185 180 181 178 178 188 186 181 185 184 178 173 170 163 177 175 173 151 136 124 103 98 96 100
85 53 114 270 148 207 116 266 273 284 161 257 265 260 232 242 227 228 219 216 208 202 193 196 194 190 187 186 179 184 186 186 186 187 187 184 179 171 172 172 180 159 155 144 146 142 121 120 118
10 186 213 300 194 140 151 251 253 195 34 290 270 264 256 250 245 241 224 216 211 205 199 195 195 193 191 186 183 185 185 191 189 185 189 188 182 176 174 178 169 159 158 159 153 145 145 136 112
191 195 232 227 221 184 174 255 275 279 257 246 263 262 251 246 248 240 232 215 216 207 204 201 192 193 189 184 183 184 185 192 190 188 194 187 187 181 175 173 167 166 161 160 158 148 121 131 136
145 148 208 251 209 152 228 256 267 279 293 276 262 260 246 244 251 248 250 227 213 218 191 196 188 196 174 177 183 187 198 196 197 191 194 189 189 185 181 177 170 171 175 174 156 138 140 128 134
223 235 241 289 68 168 278 263 258 259 260 258 262 270 255 258 260 262 253 238 209 208 204 197 196 191 192 191 194 188 186 188 198 185 193 191 192 187 187 180 180 180 171 166 165 159 150 122 183
197 183 198 221 17 291 327 293 299 286 262 276 263 248 251 248 261 263 265 250 235 217 195 196 197 191 195 193 134 89 82 73 134 198 194 197 191 188 192 188 184 183 181 180 178 177 177 171 197
200 215 212 185 85 236 37 286 294 263 293 294 270 287 282 270 264 261 266 268 230 234 215 196 173 175 185 159 173 186 197 197 196 179 175 177 193 193 192 188 182 187 185 185 190 182 192 179 187
221 155 122 65 102 52 309 46 273 279 278 263 284 278 264 260 265 298 343 304 347 237 191 175 164 171 167 178 185 190 203 187 117 132 160 178 213 205 197 192 188 191 193 195 190 188 192 197 182
148 77 44 53 57 288 201 177 282 232 214 298 285 339 296 218 213 243 42 33 29 41 124 163 167 160 147 165 166 182 192 161 148 164 180 186 196 202 226 218 207 197 196 194 196 195 199 197 200
97 87 329 332 355 235 50 153 241 268 244 227 353 339 322 274 291 294 314 280 28 49 52 108 141 166 167 172 176 181 178 176 190 188 191 177 195 211 218 207 216 205 207 203 199 200 201 207 201
187 153 164 198 203 260 274 240 245 248 297 355 10 338 341 315 260 252 282 350 349 346 20 37 73 132 158 177 195 193 184 184 199 203 194 200 200 204 196 208 218 221 212 202 201 198 209 209 207
193 204 175 96 35 46 225 290 303 316 359 23 21 21 1 341 274 319 332 360 345 341 351 269 168 186 188 197 195 199 193 191 201 211 203 199 199 192 192 201 210 217 219 199 196 200 204 205 205
162 162 80 355 148 249 267 255 225 188 79 41 29 12 355 2 28 14 5 352 329 323 302 253 211 222 221 210 207 214 222 213 210 210 218 207 202 196 191 198 207 213 214 207 201 203 204 200 202
141 187 165 134 155 181 234 256 218 158 145 119 60 15 356 356 347 354 327 326 5 339 0 337 310 284 274 255 242 232 236 233 223 225 234 229 211 202 202 202 211 213 213 213 209 210 200 204 208
138 202 162 154 220 241 160 261 161 126 127 119 101 41 346 321 347 333 319 310 240 282 297 279 271 268 263 262 257 252 247 237 237 233 231 229 226 210 207 197 204 211 213 211 215 214 207 205 208